Torna al catalogo

STARLINK-35540

AttivoComunicazioniVLEO
NORAD 66151·PAYLOAD·🇺🇸 United States

Lanciato Oct 25, 2025 da Cape Canaveral Space Force Station

Loading…

Prossimi Passaggi (prossime 24 ore)

TLE

AggiornatoSource: CelesTrak SupGP

Epoca: Sep 15, 2026, 02:25 UTC

1 66151C 25240F   26258.10118056 -.00015241  00000+0 -45019-3 0  2581
2 66151  53.1578 258.8314 0001308  89.6016  39.1765 15.34405633    19

Traccia STARLINK-35540 in tempo reale con AllMySat

Download on the App Store